Simultaneous Nadir Overpasses (SNOs) Predictions

Prediction of SNOs between FY3D and NOAA-19 Satellite Orbit:

Table of predicted SNOs for the next 14.0 days since TLE Epoch: 5/11/2024
Index Date (FY3D) Time (FY3D) Lat,Lon (FY3D) SZA (FY3D ) Date (NOAA-19) Time (NOAA-19) Lat,Lon (NOAA-19) SZA (NOAA-19 ) Distance(km) Time Diff (sec)
1 05/16/2024 16:55:20 -76.10, 104.40 123.31 05/16/2024 16:54:11 -76.07, 104.44 123.33 3.06 69
2 05/16/2024 17:46:06 76.10, -88.31 56.69 05/16/2024 17:45:04 76.07, -88.31 56.66 4.09 62
3 05/16/2024 18:36:51 -76.11, 78.98 123.31 05/16/2024 18:36:08 -76.12, 79.10 123.31 3.34 43
4 05/16/2024 19:27:37 76.11,-113.72 56.69 05/16/2024 19:27:01 76.11,-113.64 56.68 2.02 36
5 05/16/2024 20:18:22 -76.12, 53.57 123.32 05/16/2024 20:18:06 -76.12, 53.61 123.32 1.13 16
6 05/16/2024 21:09:08 76.12,-139.13 56.68 05/16/2024 21:08:59 76.11,-139.14 56.67 1.72 9
7 05/16/2024 21:59:53 -76.13, 28.16 123.32 05/16/2024 22:00:04 -76.11, 28.12 123.34 2.02 11
8 05/16/2024 22:50:39 76.13,-164.54 56.68 05/16/2024 22:50:56 76.15,-164.47 56.69 2.76 17
9 05/16/2024 23:41:24 -76.14, 2.75 123.33 05/16/2024 23:42:01 -76.16, 2.78 123.31 2.24 37
10 05/17/2024 00:32:10 76.14, 170.04 56.67 05/17/2024 00:32:54 76.15, 170.03 56.68 0.66 44
11 05/17/2024 01:22:55 -76.15, -22.67 123.34 05/17/2024 01:23:59 -76.16, -22.71 123.33 1.38 64
12 05/17/2024 02:13:41 76.15, 144.63 56.66 05/17/2024 02:14:52 76.15, 144.54 56.66 2.51 71



Historial Predications of SNOs between FY3D and NOAA-19
